Regional Weather Roundup
Issued by NWS Cleveland, OH

Home | Current Version | Previous Version | Graphics & Text | Print | Product List | Glossary On
Versions: 1 2 3 4 5 6 7 8 9 10 11 12 13 14 15 16 17 18 19 20 21 22 23 24 25 26 27 28 29 30 31 32 33 34 35 36 37 38 39 40 41 42 43 44 45 46 47 48 49 50
000
ASUS41 KCLE 241100
RWRCLE
OHIO REGIONAL WEATHER ROUNDUP
NATIONAL WEATHER SERVICE WILMINGTON, OH
700 AM EDT FRI OCT 24 2014

NOTE: "FAIR" INDICATES FEW OR NO CLOUDS BELOW 12,000 FEET WITH NO
SIGNIFICANT WEATHER AND/OR OBSTRUCTIONS TO VISIBILITY.

OHZ001>008-015>018-024>027-034-035-043-044-241200-
   NORTHWEST OHIO

CITY           SKY/WX    TMP DP  RH WIND       PRES   REMARKS
DEFIANCE       CLEAR     35  33  92 CALM      30.10S FOG
FINDLAY        CLOUDY    41  37  86 S3        30.09F
TOLEDO EXPRESS PTCLDY    34  33  96 CALM      30.09S FOG
TOLEDO METCALF MOCLDY    38  35  89 S3        30.11S
LIMA           MOCLDY    42  38  85 S7        30.09F FOG
$$

OHZ009>014-019>023-028>033-038-089-241200-
   NORTHEAST OHIO

CITY           SKY/WX    TMP DP  RH WIND       PRES   REMARKS
CLE-HOPKINS    CLOUDY    38  35  89 SW5       30.13R
CLE-LAKEFRONT  CLOUDY    44  38  79 S6        30.10R
CUY CO. ARPT   MOCLDY    43  41  93 SE5       30.10
LORAIN-ELYRIA  MOCLDY    37  36  96 CALM      30.11R
ASHTABULA      PTCLDY    34  33  96 CALM      30.09S FOG
AKRON-CANTON   CLOUDY    38  34  85 CALM      30.10S
WOOSTER        NOT AVBL
MANSFIELD      MOCLDY    37  36  96 CALM      30.10F
YOUNGSTOWN     PTCLDY    36  35  96 SW3       30.08S
$$

OHZ042-051>053-060>062-070>072-077>081-241200-
  SOUTHWEST OHIO

CITY           SKY/WX    TMP DP  RH WIND       PRES   REMARKS
CINC-COVINGTON MOCLDY    42  39  89 CALM      30.12R
CINC-LUNKEN    FOG       42  42 100 CALM      30.14S VSB 1/4
HAMILTON       MOCLDY    37  37 100 CALM      30.13S
DAYTON         NOT AVBL
WRIGHT-PAT AFB NOT AVBL
DAYTON GENERAL MOCLDY    43  40  89 CALM      30.11S
WILMINGTON     CLOUDY    40  37  89 CALM      30.12R
$$

OHZ036-037-039>041-045>050-054>059-063>069-073>076-082>088-241200-
  CENTRAL AND SOUTHEAST OHIO

CITY           SKY/WX    TMP DP  RH WIND       PRES   REMARKS
COLUMBUS       CLOUDY    42  38  85 CALM      30.12R
OSU AIRPORT    CLOUDY    41  39  93 CALM      30.11S
BOLTON FIELD   NOT AVBL
RICKENBACK AFB NOT AVBL
NEWARK         MOCLDY    35  32  88 CALM      30.12R FOG
MARION         CLOUDY    38  36  92 CALM      30.11S FOG
LANCASTER      CLOUDY    35  33  92 CALM      30.13R
ZANESVILLE     PTCLDY    34  32  92 CALM      30.12R
NEW PHILLY     FOG       38  37  97 CALM      30.13R VSB 1/4
$$



USA.gov is the U.S. government's official web portal to all federal, state and local government web resources and services.